Tracking 19281 objects as of 16-Nov-2018
HD Live streaming from Space Station
objects crossing your sky now

OPS 8068

Track OPS 8068 now!
10-day predictions
OPS 8068 is classified as:


NORAD ID: 1580
Int'l Code: 1965-072A
Perigee: 639.3 km
Apogee: 975.0 km
Inclination: 98.5 °
Period: 100.9 minutes
Semi major axis: 7178 km
RCS: 0.631 m2 (medium)
Launch date: September 10, 1965
Source: United States (US)
Launch site: AIR FORCE WESTERN TEST RANGE (AFWTR)
aabbcc
Your satellite tracking list
Your tracking list is empty




NASA's NSSDC Master Catalog

Two Line Element Set (TLE):
1  1580U 65072A   18319.95496341 -.00000012  00000-0  12273-4 0  9990
2  1580  98.4724 184.7575 0233834 301.0837  56.7585 14.27517202758155
Source of the keplerian elements: AFSPC